Weather History for KWAL - August, 2014

Change the Weather History Date:

Saturday, August 16, 2014

  Actual Average Record
Temperature  
Mean Temperature 77 °F 76 °F  
Max Temperature 84 °F 83 °F 91 °F (1997)
Min Temperature 69 °F 68 °F 55 °F (1979)
Degree Days  
Heating Degree Days 0    
Month to date heating degree days 0  
Since 1 June heating degree days 7  
Since 1 July heating degree days 0  
Cooling Degree Days 12    
Month to date cooling degree days 161  
Year to date cooling degree days 940  
Since 1 June cooling degree days 829  
Growing Degree Days 24 (Base 50)    
Moisture  
Dew Point 68 °F    
Average Humidity 80    
Maximum Humidity 97    
Minimum Humidity 63    
Precipitation  
Precipitation 0.00 in 0.13 in 2.23 in (2004)
Month to date precipitation 3.02 2.34  
Year to date precipitation 24.13 25.54  
Sea Level Pressure  
Sea Level Pressure 29.98 in    
Wind  
Wind Speed 6 mph (SSW)    
Max Wind Speed 17 mph    
Max Gust Speed 22 mph    
Visibility 10 miles    
Events      
T = Trace of Precipitation, MM = Missing Value Source: NWS Daily Summary

Daily Weather History Graph

Daily Weather History Graph

Search for Another Location

Airport or City:

Trip Planner

Search our weather history database for the weather conditions in past years. The results will help you decide how hot, cold, wet, or windy it might be!

Date:

Astronomy

Aug. 16, 2014 Rise Set
Actual Time 6:17 AM EDT 7:53 PM EDT
Civil Twilight 5:49 AM EDT 8:21 PM EDT
Nautical Twilight 5:16 AM EDT 8:55 PM EDT
Astronomical Twilight 4:40 AM EDT 9:30 PM EDT
Moon 11:43 PM EDT (8/16) 12:54 PM EDT (8/16)
Length of Visible Light 14h 31m
Length of Day
13h 35m
Waning Gibbous, 59% of the Moon is Illuminated
Aug 16
Waning Gibbous
Aug 17
Last Quarter
Aug 25
New
Sep 2
First Quarter
Sep 8
Full

Hourly Weather History & Observations

Time (EDT) Temp. Heat Index Dew Point Humidity Pressure Visibility Wind Dir Wind Speed Gust Speed Precip Events Conditions
1:54 AM 73.0 °F - 64.0 °F 73% 29.99 in 10.0 mi SSE 8.1 mph - N/A   Overcast
2:54 AM 72.0 °F - 63.0 °F 73% 29.98 in 10.0 mi SSE 4.6 mph - N/A   Clear
3:54 AM 72.0 °F - 64.0 °F 76% 29.98 in 10.0 mi SSE 5.8 mph - N/A   Scattered Clouds
4:54 AM 73.0 °F - 63.0 °F 71% 29.98 in 10.0 mi South 5.8 mph - N/A   Clear
5:54 AM 73.0 °F - 64.0 °F 73% 29.98 in 10.0 mi South 5.8 mph - N/A   Clear
6:54 AM 69.1 °F - 63.0 °F 81% 29.99 in 10.0 mi North 5.8 mph - N/A   Clear
7:54 AM 73.0 °F - 66.0 °F 79% 30.00 in 10.0 mi East 6.9 mph - N/A   Partly Cloudy
8:20 AM 75.0 °F - 66.9 °F 76% 30.01 in 10.0 mi Calm Calm - N/A   Mostly Cloudy
8:50 AM 75.2 °F - 68.0 °F 78% 30.01 in 10.0 mi SSE 3.5 mph - N/A   Scattered Clouds
8:54 AM 75.9 °F - 68.0 °F 76% 30.00 in 10.0 mi SE 4.6 mph - N/A   Partly Cloudy
9:54 AM 77.0 °F - 70.0 °F 79% 30.01 in 10.0 mi SSE 5.8 mph - N/A   Mostly Cloudy
10:35 AM 79.0 °F - 69.1 °F 72% 30.02 in 10.0 mi SSW 9.2 mph - N/A   Scattered Clouds
10:54 AM 79.0 °F - 69.1 °F 72% 30.01 in 10.0 mi SSW 6.9 mph - N/A   Clear
11:54 AM 82.0 °F 85.9 °F 70.0 °F 67% 30.00 in 10.0 mi South 8.1 mph - N/A   Clear
12:54 PM 82.0 °F 86.3 °F 71.1 °F 69% 30.00 in 10.0 mi South 12.7 mph - N/A   Partly Cloudy
1:54 PM 80.1 °F 83.6 °F 71.1 °F 74% 29.99 in 10.0 mi SSW 15.0 mph - N/A   Mostly Cloudy
2:54 PM 81.0 °F 84.9 °F 71.1 °F 72% 29.98 in 10.0 mi SSW 12.7 mph - N/A   Scattered Clouds
3:54 PM 81.0 °F 84.9 °F 71.1 °F 72% 29.96 in 10.0 mi SSW 10.4 mph - N/A   Mostly Cloudy
4:54 PM 82.9 °F 85.8 °F 68.0 °F 60% 29.95 in 10.0 mi West 8.1 mph - N/A   Clear
5:54 PM 82.0 °F 84.9 °F 68.0 °F 62% 29.95 in 10.0 mi West 6.9 mph - N/A   Clear
6:54 PM 81.0 °F 84.1 °F 69.1 °F 67% 29.95 in 10.0 mi WNW 4.6 mph - N/A   Clear
7:54 PM 77.0 °F - 69.1 °F 76% 29.96 in 10.0 mi WNW 3.5 mph - N/A   Clear
8:54 PM 73.9 °F - 69.1 °F 85% 29.96 in 10.0 mi Calm Calm - N/A   Clear
9:54 PM 73.0 °F - 69.1 °F 87% 29.97 in 10.0 mi Calm Calm - N/A   Clear
10:54 PM 70.0 °F - 68.0 °F 93% 29.97 in 9.0 mi SW 3.5 mph - N/A   Clear
11:54 PM 70.0 °F - 68.0 °F 93% 29.96 in 9.0 mi Calm Calm - N/A   Clear